Location: Goldmont Forest
(38.0233°N, 120.2524°W)
Time: 22:19:00
(UTC+00:00)

IRIDIUM 106 - Pass Details

Date: 05 August 2024
Orbit: 776 x 779 km, 86.4° (Epoch: 07 September)

Event Time Altitude Azimuth Distance (km) Brightness Sun altitude
Rises 12:07:04 0° 185° (S) 3,246 7.2 -11.5°
Reaches altitude 10° 12:09:24 10° 187° (S) 2,323 6.4 -11.1°
Maximum altitude 12:14:36 75° 273° (W) 811 4.3 -10.2°
Drops below altitude 10° 12:19:50 10° 359° (N) 2,339 7.2 -9.4°
Sets 12:22:12 0° 1° (N) 3,270 8.0 -8.9°
